Ironwood, MI

5:24 PM CST on December 04, 2016 (GMT -0600)
Gogebic-Iron County

Weather History for KIWD - November, 2011

Change the Weather History Date:

Thursday, November 10, 2011

  Actual Average Record
Temperature  
Mean Temperature 32 °F -  
Max Temperature 35 °F 39 °F 64 °F (2010)
Min Temperature 30 °F 26 °F 19 °F (2014)
Degree Days  
Heating Degree Days 32    
Moisture  
Dew Point 29 °F    
Average Humidity 84    
Maximum Humidity 100    
Minimum Humidity 65    
Precipitation  
Precipitation 0.12 in - - ()
Sea Level Pressure  
Sea Level Pressure 29.81 in    
Wind  
Wind Speed 11 mph (WNW)    
Max Wind Speed 16 mph    
Max Gust Speed 24 mph    
Visibility 6 miles    
Events      
Averages and records for this station are not official NWS values.
T = Trace of Precipitation, MM = Missing Value Source: NWS Daily Summary

Daily Weather History Graph

Daily Weather History Graph

Search for Another Location

Airport or City:

Trip Planner

Search our weather history database for the weather conditions in past years. The results will help you decide how hot, cold, wet, or windy it might be!

Date:

Astronomy

Nov. 10, 2011 Rise Set
Actual Time 6:54 AM CST 4:33 PM CST
Civil Twilight 6:22 AM CST 5:05 PM CST
Nautical Twilight 5:46 AM CST 5:41 PM CST
Astronomical Twilight 5:10 AM CST 6:17 PM CST
Moon 4:17 PM CST (11/10) 6:50 AM CST (11/10)
Length of Visible Light 10h 43m
Length of Day
9h 38m
Full, 100% of the Moon is Illuminated
Nov 10
Full
Nov 10
Full
Nov 18
Last Quarter
Nov 25
New
Dec 2
First Quarter

Hourly Weather History & Observations

Time (CST) Temp. Windchill Dew Point Humidity Pressure Visibility Wind Dir Wind Speed Gust Speed Precip Events Conditions
12:15 AM 33.8 °F 25.3 °F 26.6 °F 75% 29.75 in 10.0 mi West 11.5 mph - N/A   Overcast
1:15 AM 32.0 °F 23.0 °F 28.4 °F 87% 29.74 in 10.0 mi West 11.5 mph - N/A   Overcast
1:35 AM 32.0 °F 22.1 °F 26.6 °F 80% 29.74 in 7.0 mi West 13.8 mph - N/A   Overcast
1:55 AM 30.2 °F 21.3 °F 28.4 °F 93% 29.74 in 4.0 mi West 10.4 mph - N/A   Overcast
2:15 AM 30.2 °F 21.3 °F 28.4 °F 93% 29.74 in 3.0 mi West 10.4 mph - N/A   Overcast
2:35 AM 30.2 °F 21.3 °F 28.4 °F 93% 29.74 in 2.5 mi West 10.4 mph - N/A   Overcast
2:55 AM 30.2 °F 20.8 °F 28.4 °F 93% 29.74 in 2.0 mi WSW 11.5 mph - N/A   Overcast
3:15 AM 30.2 °F 21.3 °F 28.4 °F 93% 29.74 in 1.5 mi West 10.4 mph - N/A   Overcast
3:55 AM 30.2 °F 21.9 °F 30.2 °F 100% 29.74 in 2.0 mi West 9.2 mph - N/A   Overcast
4:15 AM 30.2 °F 21.9 °F 30.2 °F 100% 29.74 in 2.0 mi West 9.2 mph - N/A   Overcast
5:15 AM 32.0 °F 23.6 °F 30.2 °F 93% 29.75 in 1.5 mi WNW 10.4 mph - N/A   Overcast
5:35 AM 32.0 °F 24.2 °F 30.2 °F 93% 29.75 in 1.2 mi WNW 9.2 mph - N/A   Overcast
5:55 AM 33.8 °F 25.3 °F 32.0 °F 93% 29.75 in 1.8 mi WNW 11.5 mph - N/A   Overcast
6:15 AM 33.8 °F 24.8 °F 32.0 °F 93% 29.76 in 3.0 mi WNW 12.7 mph 17.3 mph N/A   Overcast
6:35 AM 33.8 °F 25.3 °F 30.2 °F 87% 29.76 in 9.0 mi NW 11.5 mph - N/A   Overcast
6:55 AM 33.8 °F 27.0 °F 32.0 °F 93% 29.77 in 2.5 mi WNW 8.1 mph - N/A   Overcast
7:15 AM 33.8 °F 26.4 °F 32.0 °F 93% 29.77 in 1.8 mi WNW 9.2 mph 17.3 mph N/A   Overcast
7:35 AM 33.8 °F 25.3 °F 32.0 °F 93% 29.78 in 0.8 mi NW 11.5 mph 18.4 mph N/A   Overcast
7:55 AM 33.8 °F 25.8 °F 30.2 °F 87% 29.79 in 1.2 mi NW 10.4 mph - N/A   Overcast
8:35 AM 33.8 °F 25.8 °F 33.8 °F 100% 29.80 in 2.5 mi NW 10.4 mph 17.3 mph N/A   Overcast
9:15 AM 33.8 °F 25.3 °F 32.0 °F 93% 29.81 in 1.8 mi NW 11.5 mph - N/A   Overcast
9:35 AM 33.8 °F 24.8 °F 33.8 °F 100% 29.81 in 3.0 mi WNW 12.7 mph 18.4 mph N/A   Overcast
9:55 AM 33.8 °F 23.9 °F 32.0 °F 93% 29.82 in 7.0 mi WNW 15.0 mph 24.2 mph N/A   Overcast
10:15 AM 33.8 °F 23.9 °F 32.0 °F 93% 29.83 in 8.0 mi WNW 15.0 mph - N/A   Overcast
10:35 AM 33.8 °F 25.8 °F 30.2 °F 87% 29.83 in 1.0 mi North 10.4 mph - N/A   Overcast
10:55 AM 33.8 °F 28.6 °F 32.0 °F 93% 29.83 in 3.0 mi NW 5.8 mph - N/A   Overcast
11:35 AM 35.6 °F 28.0 °F 30.2 °F 81% 29.82 in 10.0 mi WNW 10.4 mph 19.6 mph 0.02 in   Overcast
11:55 AM 33.8 °F 25.3 °F 32.0 °F 93% 29.82 in 10.0 mi WNW 11.5 mph - 0.04 in   Overcast
12:15 PM 33.8 °F 23.9 °F 32.0 °F 93% 29.83 in 4.0 mi WNW 15.0 mph 23.0 mph 0.01 in   Overcast
12:35 PM 35.6 °F 28.0 °F 30.2 °F 81% 29.82 in 10.0 mi WNW 10.4 mph 17.3 mph 0.04 in   Overcast
1:35 PM 35.6 °F 27.1 °F 30.2 °F 81% 29.83 in 10.0 mi West 12.7 mph 23.0 mph N/A   Overcast
1:55 PM 35.6 °F 28.6 °F 30.2 °F 81% 29.83 in 10.0 mi WNW 9.2 mph - N/A   Overcast
2:15 PM 35.6 °F 26.2 °F 30.2 °F 81% 29.83 in 10.0 mi WNW 15.0 mph - N/A   Overcast
2:35 PM 35.6 °F 27.5 °F 28.4 °F 75% 29.84 in 10.0 mi WNW 11.5 mph - N/A   Overcast
2:55 PM 35.6 °F 25.9 °F 28.4 °F 75% 29.84 in 10.0 mi WNW 16.1 mph 20.7 mph 0.02 in   Overcast
3:15 PM 35.6 °F 27.5 °F 30.2 °F 81% 29.85 in 7.0 mi NW 11.5 mph 18.4 mph 0.01 in   Overcast
3:35 PM 35.6 °F 28.0 °F 28.4 °F 75% 29.86 in 10.0 mi WNW 10.4 mph - 0.01 in   Mostly Cloudy
3:55 PM 35.6 °F 26.6 °F 28.4 °F 75% 29.86 in 10.0 mi WNW 13.8 mph - 0.01 in   Mostly Cloudy
4:15 PM 35.6 °F 26.6 °F 28.4 °F 75% 29.86 in 10.0 mi WNW 13.8 mph 21.9 mph N/A   Overcast
4:35 PM 33.8 °F 25.3 °F 26.6 °F 75% 29.87 in 10.0 mi WNW 11.5 mph - N/A   Overcast
4:55 PM 33.8 °F 24.8 °F 26.6 °F 75% 29.87 in 10.0 mi WNW 12.7 mph 19.6 mph N/A   Overcast
5:35 PM 33.8 °F 24.8 °F 26.6 °F 75% 29.87 in 10.0 mi WNW 12.7 mph 17.3 mph 0.01 in   Overcast
5:55 PM 33.8 °F 25.3 °F 26.6 °F 75% 29.88 in 10.0 mi WNW 11.5 mph 17.3 mph 0.01 in   Overcast
6:15 PM 33.8 °F 24.3 °F 24.8 °F 70% 29.88 in 10.0 mi NW 13.8 mph 19.6 mph N/A   Overcast
6:35 PM 33.8 °F 25.3 °F 23.0 °F 65% 29.88 in 10.0 mi WNW 11.5 mph - N/A   Overcast
6:55 PM 33.8 °F 26.4 °F 24.8 °F 70% 29.88 in 10.0 mi NW 9.2 mph 16.1 mph N/A   Overcast
7:35 PM 33.8 °F 25.3 °F 24.8 °F 70% 29.88 in 10.0 mi WNW 11.5 mph - N/A   Overcast
7:55 PM 33.8 °F 25.3 °F 23.0 °F 65% 29.88 in 10.0 mi WNW 11.5 mph - N/A   Overcast
8:15 PM 33.8 °F 24.3 °F 23.0 °F 65% 29.88 in 10.0 mi WNW 13.8 mph 18.4 mph N/A   Overcast
8:35 PM 32.0 °F 24.8 °F 24.8 °F 75% 29.88 in 10.0 mi West 8.1 mph - N/A   Overcast
8:55 PM 32.0 °F 23.0 °F 24.8 °F 75% 29.88 in 10.0 mi WNW 11.5 mph - N/A   Overcast
9:15 PM 32.0 °F 24.8 °F 24.8 °F 75% 29.88 in 10.0 mi West 8.1 mph - N/A   Overcast
9:35 PM 32.0 °F 24.2 °F 23.0 °F 69% 29.88 in 10.0 mi WNW 9.2 mph - N/A   Overcast
9:55 PM 30.2 °F 21.3 °F 26.6 °F 86% 29.88 in 10.0 mi WSW 10.4 mph - N/A   Overcast
10:15 PM 30.2 °F 21.9 °F 24.8 °F 80% 29.87 in 10.0 mi WSW 9.2 mph - N/A   Overcast
10:35 PM 30.2 °F 21.3 °F 24.8 °F 80% 29.87 in 10.0 mi West 10.4 mph - N/A   Overcast
10:55 PM 30.2 °F 21.3 °F 24.8 °F 80% 29.87 in 10.0 mi WSW 10.4 mph - N/A   Overcast
11:15 PM 30.2 °F 21.9 °F 24.8 °F 80% 29.87 in 10.0 mi WSW 9.2 mph - N/A   Overcast
11:35 PM 30.2 °F 24.3 °F 24.8 °F 80% 29.86 in 10.0 mi WSW 5.8 mph - N/A   Overcast
11:55 PM 30.2 °F 23.4 °F 24.8 °F 80% 29.86 in 10.0 mi WSW 6.9 mph - N/A   Overcast